�������l�o���
Date,Time,MP-1(��Sv/h),MP-2(��Sv/h),MP-3(��Sv/h),MP-4(��Sv/h),MP-5(��Sv/h),MP-6(��Sv/h),MP-7(��Sv/h),MP-8(��Sv/h),����,����(m/s),���J
2021/11/26,00:00,0.583,0.873,0.558,1.075,0.755,0.355,0.616,0.581,�k�k��,3.6,��
2021/11/26,00:10,0.582,0.870,0.557,1.074,0.755,0.354,0.617,0.580,�k,4.0,��
2021/11/26,00:20,0.584,0.872,0.558,1.074,0.753,0.354,0.617,0.580,�k��,5.5,��
2021/11/26,00:30,0.583,0.872,0.557,1.073,0.755,0.356,0.618,0.578,���k��,3.3,��
2021/11/26,00:40,0.582,0.872,0.556,1.073,0.756,0.354,0.619,0.581,���쐼,3.3,��
2021/11/26,00:50,0.582,0.871,0.558,1.076,0.756,0.356,0.617,0.580,���쐼,4.1,��
2021/11/26,01:00,0.581,0.874,0.558,1.074,0.757,0.355,0.617,0.580,���쐼,7.6,��
2021/11/26,01:10,0.581,0.873,0.557,1.074,0.755,0.355,0.617,0.580,���쐼,8.7,��
2021/11/26,01:20,0.584,0.873,0.557,1.074,0.755,0.355,0.618,0.581,���쐼,7.8,��
2021/11/26,01:30,0.582,0.872,0.557,1.075,0.755,0.356,0.616,0.580,���쐼,6.1,��
2021/11/26,01:40,0.581,0.873,0.557,1.071,0.753,0.354,0.619,0.580,���쐼,5.5,��
2021/11/26,01:50,0.579,0.872,0.555,1.072,0.756,0.356,0.618,0.580,���쐼,5.3,��
2021/11/26,02:00,0.581,0.873,0.557,1.075,0.755,0.355,0.617,0.580,���쐼,6.1,��
2021/11/26,02:10,0.583,0.874,0.557,1.074,0.755,0.354,0.618,0.581,���쐼,6.8,��
2021/11/26,02:20,0.583,0.875,0.557,1.074,0.754,0.355,0.617,0.581,��,6.4,��
2021/11/26,02:30,0.582,0.871,0.557,1.076,0.756,0.355,0.616,0.581,��,7.0,��
2021/11/26,02:40,0.582,0.873,0.556,1.074,0.755,0.353,0.617,0.579,��,5.9,��
2021/11/26,02:50,0.582,0.872,0.555,1.075,0.756,0.354,0.616,0.579,��,4.0,��
2021/11/26,03:00,0.582,0.872,0.558,1.075,0.756,0.355,0.617,0.581,��,2.6,��
2021/11/26,03:10,0.582,0.872,0.557,1.071,0.755,0.354,0.618,0.580,��,3.4,��
2021/11/26,03:20,0.583,0.871,0.556,1.073,0.755,0.355,0.617,0.581,���쐼,5.5,��
2021/11/26,03:30,0.582,0.873,0.557,1.073,0.756,0.355,0.619,0.580,��,4.9,��
2021/11/26,03:40,0.580,0.872,0.556,1.073,0.756,0.354,0.617,0.580,���k��,3.9,��
2021/11/26,03:50,0.581,0.872,0.557,1.071,0.757,0.354,0.617,0.581,�k��,4.2,��
2021/11/26,04:00,0.581,0.871,0.557,1.075,0.755,0.354,0.616,0.580,�k��,4.3,��
2021/11/26,04:10,0.582,0.872,0.557,1.074,0.756,0.354,0.616,0.579,�k��,3.5,��
2021/11/26,04:20,0.584,0.872,0.556,1.074,0.757,0.356,0.617,0.579,�k�k��,4.0,��
2021/11/26,04:30,0.580,0.872,0.557,1.073,0.754,0.356,0.615,0.581,�k�k��,2.0,��
2021/11/26,04:40,0.582,0.873,0.557,1.075,0.756,0.354,0.618,0.580,���k��,2.2,��
2021/11/26,04:50,0.582,0.872,0.556,1.074,0.755,0.356,0.616,0.579,��,3.0,��
2021/11/26,05:00,0.581,0.872,0.558,1.072,0.755,0.356,0.616,0.580,���쐼,5.2,��
2021/11/26,05:10,0.580,0.873,0.558,1.073,0.754,0.354,0.615,0.579,�쐼,4.9,��
2021/11/26,05:20,0.580,0.874,0.557,1.072,0.754,0.354,0.615,0.581,�쐼,4.8,��
2021/11/26,05:30,0.581,0.872,0.555,1.073,0.756,0.355,0.617,0.580,���쐼,5.7,��
2021/11/26,05:40,0.579,0.873,0.556,1.073,0.753,0.354,0.616,0.580,�쐼,4.8,��
2021/11/26,05:50,0.581,0.872,0.554,1.073,0.756,0.354,0.616,0.581,���쐼,4.3,��
2021/11/26,06:00,0.580,0.870,0.556,1.074,0.757,0.354,0.617,0.581,���쐼,4.7,��
2021/11/26,06:10,0.582,0.871,0.555,1.072,0.755,0.355,0.615,0.580,���쐼,5.1,��
2021/11/26,06:20,0.581,0.872,0.555,1.074,0.753,0.353,0.617,0.580,���쐼,4.6,��
2021/11/26,06:30,0.580,0.874,0.555,1.073,0.757,0.355,0.616,0.580,���쐼,5.7,��
2021/11/26,06:40,0.582,0.874,0.556,1.075,0.755,0.354,0.617,0.580,���k��,2.3,��
2021/11/26,06:50,0.581,0.872,0.556,1.072,0.755,0.352,0.616,0.581,�k��,2.3,��
2021/11/26,07:00,0.581,0.873,0.556,1.075,0.754,0.353,0.616,0.580,�k��,2.5,��
2021/11/26,07:10,0.582,0.872,0.557,1.073,0.756,0.353,0.616,0.578,���k��,5.4,��
2021/11/26,07:20,0.581,0.871,0.556,1.073,0.755,0.354,0.615,0.581,���k��,5.0,��
2021/11/26,07:30,0.581,0.871,0.558,1.074,0.755,0.354,0.615,0.580,���k��,4.8,��
2021/11/26,07:40,0.581,0.872,0.556,1.073,0.754,0.353,0.616,0.580,���k��,3.7,��
2021/11/26,07:50,0.581,0.872,0.556,1.075,0.753,0.353,0.616,0.580,���k��,2.3,��
2021/11/26,08:00,0.582,0.872,0.556,1.076,0.753,0.353,0.616,0.581,�k�k��,1.2,��
2021/11/26,08:10,0.582,0.873,0.555,1.074,0.756,0.353,0.617,0.580,�k��,1.2,��
2021/11/26,08:20,0.583,0.873,0.557,1.074,0.753,0.353,0.616,0.579,��,1.5,��
2021/11/26,08:30,0.582,0.874,0.554,1.075,0.755,0.352,0.615,0.579,��쐼,2.3,��
2021/11/26,08:40,0.583,0.872,0.556,1.075,0.754,0.353,0.616,0.582,���쐼,7.1,��
2021/11/26,08:50,0.582,0.873,0.556,1.073,0.753,0.353,0.616,0.581,���쐼,7.4,��
2021/11/26,09:00,0.582,0.871,0.555,1.073,0.756,0.352,0.616,0.582,���쐼,9.2,��
2021/11/26,09:10,0.582,0.872,0.556,1.072,0.753,0.353,0.616,0.582,���쐼,7.0,��
2021/11/26,09:20,0.583,0.872,0.554,1.076,0.755,0.354,0.615,0.581,���쐼,8.2,��
2021/11/26,09:30,0.581,0.871,0.555,1.074,0.756,0.352,0.614,0.580,���쐼,7.8,��
2021/11/26,09:40,0.583,0.871,0.554,1.076,0.756,0.354,0.614,0.580,��,8.3,��
2021/11/26,09:50,0.583,0.871,0.554,1.076,0.757,0.358,0.615,0.581,���쐼,8.3,��
2021/11/26,10:00,0.582,0.870,0.553,1.076,0.755,0.354,0.615,0.580,��,8.3,��
2021/11/26,10:10,0.585,0.871,0.557,1.073,0.755,0.356,0.615,0.580,��,7.0,��
2021/11/26,10:20,0.585,0.870,0.557,1.076,0.756,0.356,0.616,0.581,���쐼,9.5,��
2021/11/26,10:30,0.584,0.871,0.558,1.077,0.756,0.356,0.615,-,���쐼,9.0,��
2021/11/26,10:40,0.583,0.872,0.557,1.078,0.756,0.356,0.614,-,���쐼,7.2,��
2021/11/26,10:50,0.583,0.869,0.557,1.077,0.755,0.355,0.615,-,���쐼,9.5,��
2021/11/26,11:00,0.583,0.871,0.556,1.076,0.755,0.354,0.617,-,���쐼,8.6,��
2021/11/26,11:10,0.583,0.870,0.557,1.078,0.755,0.355,0.616,-,��,7.9,��
2021/11/26,11:20,0.582,0.871,0.559,1.076,0.755,0.355,0.615,-,���쐼,6.4,��
2021/11/26,11:30,0.583,0.873,0.557,1.079,0.756,0.356,0.615,-,��,8.7,��
2021/11/26,11:40,0.581,0.871,0.556,1.078,0.754,0.356,0.615,-,��,8.5,��
2021/11/26,11:50,0.583,0.875,0.558,1.075,0.755,0.358,0.615,-,��,11.3,��
2021/11/26,12:00,0.583,0.872,0.558,1.076,0.756,0.356,0.617,-,��,7.4,��
2021/11/26,12:10,0.585,0.875,0.558,1.077,0.755,0.357,0.615,-,��,9.4,��
2021/11/26,12:20,0.583,0.874,0.559,1.077,0.756,0.357,0.616,-,��,8.7,��
2021/11/26,12:30,0.583,0.873,0.559,1.078,0.757,0.358,0.615,-,��,7.5,��
2021/11/26,12:40,0.582,0.874,0.558,1.076,0.756,0.358,0.616,-,��,6.4,��
2021/11/26,12:50,0.583,0.874,0.558,1.076,0.756,0.358,0.616,-,��,10.0,��
2021/11/26,13:00,0.583,0.874,0.558,1.076,0.755,0.359,0.616,-,���k��,9.5,��
2021/11/26,13:10,0.583,0.875,0.558,1.079,0.754,0.358,0.616,-,��,8.2,��
2021/11/26,13:20,0.582,0.874,0.557,1.078,0.755,0.357,0.616,-,��,9.4,��
2021/11/26,13:30,0.583,0.874,0.558,1.077,0.756,0.357,0.616,-,��,8.7,��
2021/11/26,13:40,0.585,0.874,0.558,1.079,0.756,0.356,0.616,-,��,7.8,��
2021/11/26,13:50,0.582,0.870,0.557,1.078,0.758,0.357,0.617,-,��,7.5,��
2021/11/26,14:00,0.583,0.874,0.558,1.079,0.758,0.357,0.617,-,��,7.0,��
2021/11/26,14:10,0.581,0.874,0.559,1.078,0.759,0.357,0.617,-,��,7.1,��
2021/11/26,14:20,0.582,0.872,0.560,1.078,0.760,0.358,0.617,-,��,5.4,��
2021/11/26,14:30,0.582,0.874,0.560,1.080,0.760,0.357,0.619,-,���k��,5.5,��
2021/11/26,14:40,0.583,0.872,0.560,1.079,0.758,0.357,0.618,-,���k��,3.3,��
2021/11/26,14:50,0.583,0.874,0.560,1.079,0.759,0.358,0.618,0.581,�k�k��,2.3,��
2021/11/26,15:00,0.583,0.875,0.558,1.079,0.758,0.357,0.617,0.583,�k,3.5,��
2021/11/26,15:10,0.583,0.878,0.557,1.077,0.757,0.356,0.617,0.581,�k,3.7,��
2021/11/26,15:20,0.582,0.877,0.558,1.078,0.759,0.357,0.617,0.582,�k�k��,2.9,��
2021/11/26,15:30,0.582,0.877,0.558,1.077,0.757,0.357,0.616,0.584,�k�k��,3.3,��
2021/11/26,15:40,0.582,0.878,0.558,1.081,0.755,0.357,0.617,0.581,�k�k��,3.7,��
2021/11/26,15:50,0.584,0.879,0.559,1.080,0.755,0.356,0.617,0.583,�k�k��,2.6,��
2021/11/26,16:00,0.582,0.877,0.559,1.080,0.756,0.357,0.619,0.581,�k��,3.6,��
2021/11/26,16:10,0.582,0.877,0.558,1.078,0.755,0.357,0.618,0.581,�k��,3.2,��
2021/11/26,16:20,0.585,0.876,0.559,1.078,0.756,0.356,0.618,0.582,�k��,3.2,��
2021/11/26,16:30,0.583,0.878,0.558,1.080,0.758,0.356,0.619,0.582,�k�k��,3.6,��
2021/11/26,16:40,0.582,0.877,0.557,1.079,0.757,0.355,0.617,0.581,�k��,3.6,��
2021/11/26,16:50,0.583,0.876,0.560,1.078,0.756,0.357,0.620,0.582,�k�k��,3.2,��
2021/11/26,17:00,0.585,0.876,0.558,1.079,0.759,0.355,0.618,0.580,�k��,3.8,��
2021/11/26,17:10,0.585,0.875,0.555,1.080,0.757,0.355,0.618,0.582,�k�k��,3.7,��
2021/11/26,17:20,0.582,0.877,0.558,1.080,0.758,0.356,0.618,0.582,�k�k��,4.1,��
2021/11/26,17:30,0.583,0.876,0.559,1.078,0.757,0.355,0.617,0.582,�k,4.0,��
2021/11/26,17:40,0.582,0.877,0.560,1.078,0.760,0.355,0.618,0.581,�k,5.8,��
2021/11/26,17:50,0.583,0.874,0.559,1.080,0.756,0.356,0.619,0.580,�k,6.7,��
2021/11/26,18:00,0.584,0.878,0.558,1.079,0.759,0.355,0.617,0.582,�k,6.5,��
2021/11/26,18:10,0.583,0.879,0.560,1.079,0.758,0.356,0.618,0.582,�k�k��,6.6,��
2021/11/26,18:20,0.584,0.877,0.559,1.079,0.758,0.355,0.617,0.581,�k�k��,7.1,��
2021/11/26,18:30,0.584,0.875,0.558,1.078,0.759,0.356,0.618,0.582,�k�k��,7.7,��
2021/11/26,18:40,0.585,0.875,0.558,1.079,0.757,0.355,0.617,0.582,�k�k��,8.3,��
2021/11/26,18:50,0.585,0.879,0.559,1.079,0.760,0.355,0.618,0.582,�k�k��,6.5,�L
2021/11/26,19:00,0.584,0.876,0.558,1.079,0.758,0.354,0.618,0.582,�k�k��,3.7,��
2021/11/26,19:10,0.584,0.878,0.558,1.079,0.756,0.355,0.618,0.581,�k�k��,2.6,��
2021/11/26,19:20,0.585,0.877,0.558,1.078,0.759,0.355,0.616,0.582,�k,2.6,��
2021/11/26,19:30,0.586,0.877,0.559,1.076,0.759,0.354,0.617,0.582,�k,3.7,��
2021/11/26,19:40,0.583,0.877,0.559,1.078,0.757,0.357,0.618,0.583,�k,3.5,��
2021/11/26,19:50,0.584,0.876,0.560,1.078,0.758,0.355,0.619,0.582,�k�k��,3.0,��
2021/11/26,20:00,0.585,0.879,0.560,1.080,0.759,0.355,0.620,0.582,�k�k��,2.5,��
2021/11/26,20:10,0.584,0.877,0.559,1.079,0.758,0.357,0.619,0.583,�k,3.8,��
2021/11/26,20:20,0.584,0.879,0.558,1.079,0.757,0.354,0.620,0.581,�k,5.0,�L
2021/11/26,20:30,0.583,0.879,0.558,1.080,0.760,0.356,0.618,0.585,�k,5.0,�L
2021/11/26,20:40,0.585,0.877,0.559,1.079,0.759,0.354,0.617,0.581,�k�k��,3.8,�L
2021/11/26,20:50,0.586,0.878,0.562,1.080,0.758,0.358,0.619,0.582,�k,4.1,�L
2021/11/26,21:00,0.589,0.878,0.562,1.084,0.758,0.360,0.619,0.581,�k,2.5,�L
2021/11/26,21:10,0.591,0.880,0.564,1.085,0.760,0.361,0.619,0.580,�k,1.5,�L
2021/11/26,21:20,0.590,0.879,0.564,1.082,0.761,0.361,0.619,0.582,-,CALM,�L
2021/11/26,21:30,0.589,0.877,0.563,1.084,0.762,0.360,0.619,0.584,�k�k��,1.7,��
2021/11/26,21:40,0.588,0.877,0.563,1.082,0.758,0.359,0.619,0.582,�k�k��,2.0,��
2021/11/26,21:50,0.588,0.876,0.561,1.082,0.758,0.359,0.619,0.581,�k�k��,2.8,��
2021/11/26,22:00,0.585,0.876,0.561,1.080,0.757,0.358,0.616,0.581,�k�k��,3.5,�L
2021/11/26,22:10,0.584,0.874,0.558,1.082,0.755,0.357,0.618,0.581,�k��,3.9,��
2021/11/26,22:20,0.582,0.874,0.557,1.078,0.756,0.356,0.617,0.581,�k��,2.3,�L
2021/11/26,22:30,0.584,0.872,0.557,1.079,0.754,0.356,0.618,0.580,�k,2.8,�L
2021/11/26,22:40,0.582,0.872,0.558,1.077,0.756,0.357,0.617,0.581,�k,4.4,�L
2021/11/26,22:50,0.581,0.872,0.557,1.077,0.756,0.358,0.619,0.581,�k,5.2,��
2021/11/26,23:00,0.581,0.869,0.556,1.078,0.754,0.357,0.617,0.581,�k,4.9,��
2021/11/26,23:10,0.581,0.871,0.556,1.078,0.753,0.356,0.616,0.581,�k,6.1,��
2021/11/26,23:20,0.582,0.870,0.554,1.077,0.753,0.355,0.616,0.581,�k,6.6,��
2021/11/26,23:30,0.581,0.870,0.554,1.077,0.755,0.356,0.617,0.580,�k,5.7,��
2021/11/26,23:40,0.579,0.871,0.555,1.076,0.754,0.355,0.616,0.580,�k,5.3,��
2021/11/26,23:50,0.578,0.869,0.555,1.076,0.753,0.354,0.616,0.580,�k�k��,5.1,��
